FW6591 Weather Reports


time (UTC)temp
C
wind
direction
speed
KPH
gust
KPH
rain 1hr
cm
rain 24hr
cm
rain mn
cm
humidity
%
barometer
mb
20260504043050 21 332 8.0 16.1 0.00 0.00 0.00 46 1017.1
20260504041549 20 14 6.4 16.1 0.00 0.00 0.00 46 1017.0
20260504040045 20 13 8.0 14.5 0.00 0.00 0.00 46 1017.2
20260504034546 21 21 11.3 22.5 0.00 0.00 0.00 45 1017.1
20260504033045 21 13 9.7 16.1 0.00 0.00 0.00 44 1017.1
20260504031545 21 22 6.4 14.5 0.00 0.00 0.00 44 1017.1
20260504030045 21 30 8.0 16.1 0.00 0.00 0.00 45 1017.0
20260504024542 20 30 4.8 11.3 0.00 0.00 0.00 47 1017.4
20260504023048 21 24 6.4 24.1 0.00 0.00 0.00 45 1017.3
20260504021549 21 320 14.5 29.0 0.00 0.00 0.00 44 1017.6
20260504020044 21 348 11.3 22.5 0.00 0.00 0.00 46 1017.7
20260504014559 18 0 0.0 4.8 0.00 0.00 0.00 52 1017.6
20260504013049 18 0 1.6 4.8 0.00 0.00 0.00 54 1017.9
20260504011544 17 0 1.6 8.0 0.00 0.00 0.00 54 1017.9
20260504010053 18 9 3.2 6.4 0.00 0.00 0.00 51 1018.1
20260504004542 18 69 1.6 4.8 0.00 0.00 0.00 51 1018.4
20260504003050 18 204 1.6 3.2 0.00 0.00 0.00 49 1018.5
20260504001544 18 0 0.0 3.2 0.00 0.00 0.00 49 1018.7
20260504000046 17 0 0.0 6.4 0.00 0.00 0.00 49 1018.7
20260503234547 17 186 1.6 4.8 0.00 0.00 0.00 49 1018.8
20260503233049 17 77 0.0 3.2 0.00 0.00 0.00 50 1019.0
20260503231545 17 86 0.0 3.2 0.00 0.00 0.00 48 1019.1
20260503230048 17 336 0.0 3.2 0.00 0.00 0.00 47 1019.3
20260503224547 18 0 0.0 3.2 0.00 0.00 0.00 45 1019.6
20260503223050 19 352 1.6 3.2 0.00 0.00 0.00 43 1019.8
20260503221547 20 9 1.6 4.8 0.00 0.00 0.00 42 1019.8
20260503220053 21 9 3.2 6.4 0.00 0.00 0.00 40 1020.1
20260503214544 22 55 1.6 8.0 0.00 0.00 0.00 37 1020.2
20260503213056 22 30 8.0 17.7 0.00 0.00 0.00 35 1020.2
20260503211550 23 346 4.8 22.5 0.00 0.00 0.00 35 1020.4
20260503204558 22 12 6.4 17.7 0.00 0.00 0.00 37 1020.6
20260503203102 23 288 8.0 17.7 0.00 0.00 0.00 35 1020.6
20260503201559 22 316 6.4 17.7 0.00 0.00 0.00 35 1020.7
20260503200055 23 347 9.7 24.1 0.00 0.00 0.00 35 1020.6
20260503194546 23 9 11.3 25.7 0.00 0.00 0.00 35 1020.6
20260503193049 23 27 16.1 29.0 0.00 0.00 0.00 35 1020.6
20260503191547 23 13 8.0 19.3 0.00 0.00 0.00 36 1020.5
20260503190048 23 9 12.9 20.9 0.00 0.00 0.00 37 1020.3
20260503184555 23 349 9.7 22.5 0.00 0.00 0.00 37 1020.3
20260503183058 22 22 8.0 20.9 0.00 0.00 0.00 39 1020.2
20260503181554 21 26 1.6 11.3 0.00 0.00 0.00 39 1020.3
20260503180047 20 12 1.6 4.8 0.00 0.00 0.00 41 1020.3
20260503174547 21 120 0.0 3.2 0.00 0.00 0.00 39 1020.2
20260503173057 22 0 0.0 9.7 0.00 0.00 0.00 36 1020.3
20260503171545 22 360 3.2 8.0 0.00 0.00 0.00 36 1020.3
20260503081606 23 16 8.0 20.9 0.00 0.00 0.00 36 1024.8
20260503071543 21 84 0.0 3.2 0.00 0.00 0.00 47 1025.2
20260503054551 10 0 0.0 3.2 0.00 0.00 0.00 73 1024.9
20260503053043 9 0 0.0 3.2 0.00 0.00 0.00 73 1024.9
20260503051548 9 342 3.2 11.3 0.00 0.00 0.00 73 1024.8
20260503050046 8 360 1.6 3.2 0.00 0.00 0.00 73 1024.9
20260503044549 8 340 4.8 9.7 0.00 0.00 0.00 74 1024.8